owner,sensor,date,latitude,longitude,sea_surface_height_above_sea_level,qcFlag 
WAVCIS,ioos:station:WAVCIS:CSI16:1,2010-04-01T00:00:00Z,29.4012,-89.0355,9.031,11111222 
WAVCIS,ioos:station:WAVCIS:CSI16:1,2010-04-01T01:00:00Z,29.4012,-89.0355,9.023,11111222 
WAVCIS,ioos:station:WAVCIS:CSI16:1,2010-04-01T02:00:00Z,29.4012,-89.0355,9.03,11111222 
WAVCIS,ioos:station:WAVCIS:CSI16:1,2010-04-01T03:00:00Z,29.4012,-89.0355,9.05,11111222 
WAVCIS,ioos:station:WAVCIS:CSI16:1,2010-04-01T04:00:00Z,29.4012,-89.0355,9.08,11111222 
WAVCIS,ioos:station:WAVCIS:CSI16:1,2010-04-01T05:00:00Z,29.4012,-89.0355,9.125,11111222 
WAVCIS,ioos:station:WAVCIS:CSI16:1,2010-04-01T06:00:00Z,29.4012,-89.0355,9.177,11111222 
WAVCIS,ioos:station:WAVCIS:CSI16:1,2010-04-01T07:00:00Z,29.4012,-89.0355,9.227,11111222 
WAVCIS,ioos:station:WAVCIS:CSI16:1,2010-04-01T08:00:00Z,29.4012,-89.0355,9.271,11111222 
WAVCIS,ioos:station:WAVCIS:CSI16:1,2010-04-01T09:00:00Z,29.4012,-89.0355,9.317,11111222 
WAVCIS,ioos:station:WAVCIS:CSI16:1,2010-04-01T10:00:00Z,29.4012,-89.0355,9.362,11111222 
WAVCIS,ioos:station:WAVCIS:CSI16:1,2010-04-01T11:00:00Z,29.4012,-89.0355,9.415,11111222 
WAVCIS,ioos:station:WAVCIS:CSI16:1,2010-04-01T12:00:00Z,29.4012,-89.0355,9.478,11111222 
WAVCIS,ioos:station:WAVCIS:CSI16:1,2010-04-01T13:00:00Z,29.4012,-89.0355,9.522,11111222 
WAVCIS,ioos:station:WAVCIS:CSI16:1,2010-04-01T14:00:00Z,29.4012,-89.0355,9.553,11111222 
WAVCIS,ioos:station:WAVCIS:CSI16:1,2010-04-01T15:00:00Z,29.4012,-89.0355,9.568,11111222 
WAVCIS,ioos:station:WAVCIS:CSI16:1,2010-04-01T16:00:00Z,29.4012,-89.0355,9.567,11111222 
WAVCIS,ioos:station:WAVCIS:CSI16:1,2010-04-01T17:00:00Z,29.4012,-89.0355,9.543,11111222 
WAVCIS,ioos:station:WAVCIS:CSI16:1,2010-04-01T18:00:00Z,29.4012,-89.0355,9.501,11111222 
WAVCIS,ioos:station:WAVCIS:CSI16:1,2010-04-01T19:00:00Z,29.4012,-89.0355,9.441,11111222 
WAVCIS,ioos:station:WAVCIS:CSI16:1,2010-04-01T20:00:00Z,29.4012,-89.0355,9.367,11111222 
WAVCIS,ioos:station:WAVCIS:CSI16:1,2010-04-01T21:00:00Z,29.4012,-89.0355,9.281,11111222 
WAVCIS,ioos:station:WAVCIS:CSI16:1,2010-04-01T22:00:00Z,29.4012,-89.0355,9.198,11111222 
WAVCIS,ioos:station:WAVCIS:CSI16:1,2010-04-01T23:00:00Z,29.4012,-89.0355,9.125,11111222 
WAVCIS,ioos:station:WAVCIS:CSI16:1,2010-04-02T00:00:00Z,29.4012,-89.0355,9.079,11111222 
WAVCIS,ioos:station:WAVCIS:CSI16:1,2010-04-02T01:00:00Z,29.4012,-89.0355,9.048,11111222 
WAVCIS,ioos:station:WAVCIS:CSI16:1,2010-04-02T02:00:00Z,29.4012,-89.0355,9.032,11111222 
WAVCIS,ioos:station:WAVCIS:CSI16:1,2010-04-02T03:00:00Z,29.4012,-89.0355,9.025,11111222 
WAVCIS,ioos:station:WAVCIS:CSI16:1,2010-04-02T04:00:00Z,29.4012,-89.0355,9.033,11111222 
WAVCIS,ioos:station:WAVCIS:CSI16:1,2010-04-02T05:00:00Z,29.4012,-89.0355,9.059,11111222 
WAVCIS,ioos:station:WAVCIS:CSI16:1,2010-04-02T06:00:00Z,29.4012,-89.0355,9.095,11111222 
WAVCIS,ioos:station:WAVCIS:CSI16:1,2010-04-02T07:00:00Z,29.4012,-89.0355,9.14,11111222 
WAVCIS,ioos:station:WAVCIS:CSI16:1,2010-04-02T08:00:00Z,29.4012,-89.0355,9.183,11111222 
WAVCIS,ioos:station:WAVCIS:CSI16:1,2010-04-02T09:00:00Z,29.4012,-89.0355,9.24,11111222 
WAVCIS,ioos:station:WAVCIS:CSI16:1,2010-04-02T10:00:00Z,29.4012,-89.0355,9.3,11111222 
WAVCIS,ioos:station:WAVCIS:CSI16:1,2010-04-02T11:00:00Z,29.4012,-89.0355,9.363,11111222 
WAVCIS,ioos:station:WAVCIS:CSI16:1,2010-04-02T12:00:00Z,29.4012,-89.0355,9.434,11111222 
WAVCIS,ioos:station:WAVCIS:CSI16:1,2010-04-02T13:00:00Z,29.4012,-89.0355,9.502,11111222 
WAVCIS,ioos:station:WAVCIS:CSI16:1,2010-04-02T14:00:00Z,29.4012,-89.0355,9.557,11111222 
WAVCIS,ioos:station:WAVCIS:CSI16:1,2010-04-02T15:00:00Z,29.4012,-89.0355,9.603,11111222 
WAVCIS,ioos:station:WAVCIS:CSI16:1,2010-04-02T16:00:00Z,29.4012,-89.0355,9.614,11111222 
WAVCIS,ioos:station:WAVCIS:CSI16:1,2010-04-02T17:00:00Z,29.4012,-89.0355,9.594,11111222 
WAVCIS,ioos:station:WAVCIS:CSI16:1,2010-04-02T18:00:00Z,29.4012,-89.0355,9.572,11111222 
WAVCIS,ioos:station:WAVCIS:CSI16:1,2010-04-02T19:00:00Z,29.4012,-89.0355,9.55,11111222 
WAVCIS,ioos:station:WAVCIS:CSI16:1,2010-04-02T20:00:00Z,29.4012,-89.0355,9.48,11111222 
WAVCIS,ioos:station:WAVCIS:CSI16:1,2010-04-02T21:00:00Z,29.4012,-89.0355,9.413,11111222 
WAVCIS,ioos:station:WAVCIS:CSI16:1,2010-04-02T22:00:00Z,29.4012,-89.0355,9.342,11111222 
WAVCIS,ioos:station:WAVCIS:CSI16:1,2010-04-02T23:00:00Z,29.4012,-89.0355,9.273,11111222 
WAVCIS,ioos:station:WAVCIS:CSI16:1,2010-04-03T00:00:00Z,29.4012,-89.0355,9.213,11111222 
WAVCIS,ioos:station:WAVCIS:CSI16:1,2010-04-03T01:00:00Z,29.4012,-89.0355,9.166,11111222 
WAVCIS,ioos:station:WAVCIS:CSI16:1,2010-04-03T02:00:00Z,29.4012,-89.0355,9.137,11111222 
WAVCIS,ioos:station:WAVCIS:CSI16:1,2010-04-03T03:00:00Z,29.4012,-89.0355,9.139,11111222 
WAVCIS,ioos:station:WAVCIS:CSI16:1,2010-04-03T04:00:00Z,29.4012,-89.0355,9.113,11111222 
WAVCIS,ioos:station:WAVCIS:CSI16:1,2010-04-03T05:00:00Z,29.4012,-89.0355,9.115,11111222 
WAVCIS,ioos:station:WAVCIS:CSI16:1,2010-04-03T06:00:00Z,29.4012,-89.0355,9.136,11111222 
WAVCIS,ioos:station:WAVCIS:CSI16:1,2010-04-03T07:00:00Z,29.4012,-89.0355,9.164,11111222 
WAVCIS,ioos:station:WAVCIS:CSI16:1,2010-04-03T08:00:00Z,29.4012,-89.0355,9.209,11111222 
WAVCIS,ioos:station:WAVCIS:CSI16:1,2010-04-03T09:00:00Z,29.4012,-89.0355,9.25,11111222 
WAVCIS,ioos:station:WAVCIS:CSI16:1,2010-04-03T10:00:00Z,29.4012,-89.0355,9.306,11111222 
WAVCIS,ioos:station:WAVCIS:CSI16:1,2010-04-03T11:00:00Z,29.4012,-89.0355,9.357,11111222 
WAVCIS,ioos:station:WAVCIS:CSI16:1,2010-04-03T12:00:00Z,29.4012,-89.0355,9.413,11111222 
WAVCIS,ioos:station:WAVCIS:CSI16:1,2010-04-03T13:00:00Z,29.4012,-89.0355,9.488,11111222 
WAVCIS,ioos:station:WAVCIS:CSI16:1,2010-04-03T14:00:00Z,29.4012,-89.0355,9.547,11111222 
WAVCIS,ioos:station:WAVCIS:CSI16:1,2010-04-03T15:00:00Z,29.4012,-89.0355,9.605,11111222 
WAVCIS,ioos:station:WAVCIS:CSI16:1,2010-04-03T16:00:00Z,29.4012,-89.0355,9.625,11111222 
WAVCIS,ioos:station:WAVCIS:CSI16:1,2010-04-03T17:00:00Z,29.4012,-89.0355,9.617,11111222 
WAVCIS,ioos:station:WAVCIS:CSI16:1,2010-04-03T18:00:00Z,29.4012,-89.0355,9.605,11111222 
WAVCIS,ioos:station:WAVCIS:CSI16:1,2010-04-03T19:00:00Z,29.4012,-89.0355,9.569,11111222 
WAVCIS,ioos:station:WAVCIS:CSI16:1,2010-04-03T20:00:00Z,29.4012,-89.0355,9.509,11111222 
WAVCIS,ioos:station:WAVCIS:CSI16:1,2010-04-03T21:00:00Z,29.4012,-89.0355,9.463,11111222 
WAVCIS,ioos:station:WAVCIS:CSI16:1,2010-04-03T22:00:00Z,29.4012,-89.0355,9.405,11111222 
WAVCIS,ioos:station:WAVCIS:CSI16:1,2010-04-03T23:00:00Z,29.4012,-89.0355,9.329,11111222 
WAVCIS,ioos:station:WAVCIS:CSI16:1,2010-04-04T00:00:00Z,29.4012,-89.0355,9.259,11111222 
WAVCIS,ioos:station:WAVCIS:CSI16:1,2010-04-04T01:00:00Z,29.4012,-89.0355,9.207,11111222 
WAVCIS,ioos:station:WAVCIS:CSI16:1,2010-04-04T02:00:00Z,29.4012,-89.0355,9.168,11111222 
WAVCIS,ioos:station:WAVCIS:CSI16:1,2010-04-04T03:00:00Z,29.4012,-89.0355,9.139,11111222 
WAVCIS,ioos:station:WAVCIS:CSI16:1,2010-04-04T04:00:00Z,29.4012,-89.0355,9.125,11111222 
WAVCIS,ioos:station:WAVCIS:CSI16:1,2010-04-04T05:00:00Z,29.4012,-89.0355,9.127,11111222 
WAVCIS,ioos:station:WAVCIS:CSI16:1,2010-04-04T06:00:00Z,29.4012,-89.0355,9.131,11111222 
WAVCIS,ioos:station:WAVCIS:CSI16:1,2010-04-04T07:00:00Z,29.4012,-89.0355,9.146,11111222 
WAVCIS,ioos:station:WAVCIS:CSI16:1,2010-04-04T08:00:00Z,29.4012,-89.0355,9.188,11111222 
WAVCIS,ioos:station:WAVCIS:CSI16:1,2010-04-04T09:00:00Z,29.4012,-89.0355,9.237,11111222 
WAVCIS,ioos:station:WAVCIS:CSI16:1,2010-04-04T10:00:00Z,29.4012,-89.0355,9.294,11111222 
WAVCIS,ioos:station:WAVCIS:CSI16:1,2010-04-04T11:00:00Z,29.4012,-89.0355,9.359,11111222 
WAVCIS,ioos:station:WAVCIS:CSI16:1,2010-04-04T12:00:00Z,29.4012,-89.0355,9.434,11111222 
WAVCIS,ioos:station:WAVCIS:CSI16:1,2010-04-04T13:00:00Z,29.4012,-89.0355,9.492,11111222 
WAVCIS,ioos:station:WAVCIS:CSI16:1,2010-04-04T14:00:00Z,29.4012,-89.0355,9.557,11111222 
WAVCIS,ioos:station:WAVCIS:CSI16:1,2010-04-04T15:00:00Z,29.4012,-89.0355,9.603,11111222 
WAVCIS,ioos:station:WAVCIS:CSI16:1,2010-04-04T16:00:00Z,29.4012,-89.0355,9.652,11111222 
WAVCIS,ioos:station:WAVCIS:CSI16:1,2010-04-04T17:00:00Z,29.4012,-89.0355,9.672,11111222 
WAVCIS,ioos:station:WAVCIS:CSI16:1,2010-04-04T18:00:00Z,29.4012,-89.0355,9.669,11111222 
WAVCIS,ioos:station:WAVCIS:CSI16:1,2010-04-04T19:00:00Z,29.4012,-89.0355,9.642,11111222 
WAVCIS,ioos:station:WAVCIS:CSI16:1,2010-04-04T20:00:00Z,29.4012,-89.0355,9.603,11111222 
WAVCIS,ioos:station:WAVCIS:CSI16:1,2010-04-04T21:00:00Z,29.4012,-89.0355,9.554,11111222 
WAVCIS,ioos:station:WAVCIS:CSI16:1,2010-04-04T22:00:00Z,29.4012,-89.0355,9.477,11111222 
WAVCIS,ioos:station:WAVCIS:CSI16:1,2010-04-04T23:00:00Z,29.4012,-89.0355,9.407,11111222 
WAVCIS,ioos:station:WAVCIS:CSI16:1,2010-04-05T00:00:00Z,29.4012,-89.0355,9.346,11111222 
WAVCIS,ioos:station:WAVCIS:CSI16:1,2010-04-05T01:00:00Z,29.4012,-89.0355,9.28,11111222 
WAVCIS,ioos:station:WAVCIS:CSI16:1,2010-04-05T02:00:00Z,29.4012,-89.0355,9.224,11111222 
WAVCIS,ioos:station:WAVCIS:CSI16:1,2010-04-05T03:00:00Z,29.4012,-89.0355,9.184,11111222 
WAVCIS,ioos:station:WAVCIS:CSI16:1,2010-04-05T04:00:00Z,29.4012,-89.0355,9.157,11111222 
WAVCIS,ioos:station:WAVCIS:CSI16:1,2010-04-05T05:00:00Z,29.4012,-89.0355,9.126,11111222 
WAVCIS,ioos:station:WAVCIS:CSI16:1,2010-04-05T06:00:00Z,29.4012,-89.0355,9.122,11111222 
WAVCIS,ioos:station:WAVCIS:CSI16:1,2010-04-05T07:00:00Z,29.4012,-89.0355,9.133,11111222 
WAVCIS,ioos:station:WAVCIS:CSI16:1,2010-04-05T08:00:00Z,29.4012,-89.0355,9.143,11111222 
WAVCIS,ioos:station:WAVCIS:CSI16:1,2010-04-05T09:00:00Z,29.4012,-89.0355,9.169,11111222 
WAVCIS,ioos:station:WAVCIS:CSI16:1,2010-04-05T10:00:00Z,29.4012,-89.0355,9.219,11111222 
WAVCIS,ioos:station:WAVCIS:CSI16:1,2010-04-05T11:00:00Z,29.4012,-89.0355,9.278,11111222 
WAVCIS,ioos:station:WAVCIS:CSI16:1,2010-04-05T12:00:00Z,29.4012,-89.0355,9.327,11111222 
WAVCIS,ioos:station:WAVCIS:CSI16:1,2010-04-05T13:00:00Z,29.4012,-89.0355,9.4,11111222 
WAVCIS,ioos:station:WAVCIS:CSI16:1,2010-04-05T14:00:00Z,29.4012,-89.0355,9.456,11111222 
WAVCIS,ioos:station:WAVCIS:CSI16:1,2010-04-05T15:00:00Z,29.4012,-89.0355,9.501,11111222 
WAVCIS,ioos:station:WAVCIS:CSI16:1,2010-04-05T16:00:00Z,29.4012,-89.0355,9.556,11111222 
WAVCIS,ioos:station:WAVCIS:CSI16:1,2010-04-05T17:00:00Z,29.4012,-89.0355,9.598,11111222 
WAVCIS,ioos:station:WAVCIS:CSI16:1,2010-04-05T18:00:00Z,29.4012,-89.0355,9.613,11111222 
WAVCIS,ioos:station:WAVCIS:CSI16:1,2010-04-05T19:00:00Z,29.4012,-89.0355,9.607,11111222 
WAVCIS,ioos:station:WAVCIS:CSI16:1,2010-04-05T20:00:00Z,29.4012,-89.0355,9.593,11111222 
WAVCIS,ioos:station:WAVCIS:CSI16:1,2010-04-05T21:00:00Z,29.4012,-89.0355,9.569,11111222 
WAVCIS,ioos:station:WAVCIS:CSI16:1,2010-04-05T22:00:00Z,29.4012,-89.0355,9.526,11111222 
WAVCIS,ioos:station:WAVCIS:CSI16:1,2010-04-05T23:00:00Z,29.4012,-89.0355,9.479,11111222 
WAVCIS,ioos:station:WAVCIS:CSI16:1,2010-04-06T00:00:00Z,29.4012,-89.0355,9.425,11111222 
WAVCIS,ioos:station:WAVCIS:CSI16:1,2010-04-06T01:00:00Z,29.4012,-89.0355,9.362,11111222 
WAVCIS,ioos:station:WAVCIS:CSI16:1,2010-04-06T02:00:00Z,29.4012,-89.0355,9.308,11111222 
WAVCIS,ioos:station:WAVCIS:CSI16:1,2010-04-06T03:00:00Z,29.4012,-89.0355,9.253,11111222 
WAVCIS,ioos:station:WAVCIS:CSI16:1,2010-04-06T04:00:00Z,29.4012,-89.0355,9.21,11111222 
WAVCIS,ioos:station:WAVCIS:CSI16:1,2010-04-06T05:00:00Z,29.4012,-89.0355,9.171,11111222 
WAVCIS,ioos:station:WAVCIS:CSI16:1,2010-04-06T06:00:00Z,29.4012,-89.0355,9.153,11111222 
WAVCIS,ioos:station:WAVCIS:CSI16:1,2010-04-06T07:00:00Z,29.4012,-89.0355,9.142,11111222 
WAVCIS,ioos:station:WAVCIS:CSI16:1,2010-04-06T08:00:00Z,29.4012,-89.0355,9.142,11111222 
WAVCIS,ioos:station:WAVCIS:CSI16:1,2010-04-06T09:00:00Z,29.4012,-89.0355,9.157,11111222 
WAVCIS,ioos:station:WAVCIS:CSI16:1,2010-04-06T10:00:00Z,29.4012,-89.0355,9.188,11111222 
WAVCIS,ioos:station:WAVCIS:CSI16:1,2010-04-06T11:00:00Z,29.4012,-89.0355,9.226,11111222 
WAVCIS,ioos:station:WAVCIS:CSI16:1,2010-04-06T12:00:00Z,29.4012,-89.0355,9.279,11111222 
WAVCIS,ioos:station:WAVCIS:CSI16:1,2010-04-06T13:00:00Z,29.4012,-89.0355,9.332,11111222 
WAVCIS,ioos:station:WAVCIS:CSI16:1,2010-04-06T14:00:00Z,29.4012,-89.0355,9.382,11111222 
WAVCIS,ioos:station:WAVCIS:CSI16:1,2010-04-06T15:00:00Z,29.4012,-89.0355,9.424,11111222 
WAVCIS,ioos:station:WAVCIS:CSI16:1,2010-04-06T16:00:00Z,29.4012,-89.0355,9.463,11111222 
WAVCIS,ioos:station:WAVCIS:CSI16:1,2010-04-06T17:00:00Z,29.4012,-89.0355,9.503,11111222 
WAVCIS,ioos:station:WAVCIS:CSI16:1,2010-04-06T18:00:00Z,29.4012,-89.0355,9.521,11111222 
WAVCIS,ioos:station:WAVCIS:CSI16:1,2010-04-06T19:00:00Z,29.4012,-89.0355,9.532,11111222 
WAVCIS,ioos:station:WAVCIS:CSI16:1,2010-04-06T20:00:00Z,29.4012,-89.0355,9.521,11111222 
WAVCIS,ioos:station:WAVCIS:CSI16:1,2010-04-06T21:00:00Z,29.4012,-89.0355,9.496,11111222 
WAVCIS,ioos:station:WAVCIS:CSI16:1,2010-04-06T22:00:00Z,29.4012,-89.0355,9.483,11111222 
WAVCIS,ioos:station:WAVCIS:CSI16:1,2010-04-06T23:00:00Z,29.4012,-89.0355,9.465,11111222 
WAVCIS,ioos:station:WAVCIS:CSI16:1,2010-04-07T00:00:00Z,29.4012,-89.0355,9.43,11111222 
WAVCIS,ioos:station:WAVCIS:CSI16:1,2010-04-07T01:00:00Z,29.4012,-89.0355,9.389,11111222 
WAVCIS,ioos:station:WAVCIS:CSI16:1,2010-04-07T02:00:00Z,29.4012,-89.0355,9.354,11111222 
WAVCIS,ioos:station:WAVCIS:CSI16:1,2010-04-07T03:00:00Z,29.4012,-89.0355,9.31,11111222 
WAVCIS,ioos:station:WAVCIS:CSI16:1,2010-04-07T04:00:00Z,29.4012,-89.0355,9.258,11111222 
WAVCIS,ioos:station:WAVCIS:CSI16:1,2010-04-07T05:00:00Z,29.4012,-89.0355,9.221,11111222 
WAVCIS,ioos:station:WAVCIS:CSI16:1,2010-04-07T06:00:00Z,29.4012,-89.0355,9.199,11111222 
WAVCIS,ioos:station:WAVCIS:CSI16:1,2010-04-07T07:00:00Z,29.4012,-89.0355,9.178,11111222 
WAVCIS,ioos:station:WAVCIS:CSI16:1,2010-04-07T08:00:00Z,29.4012,-89.0355,9.186,11111222 
WAVCIS,ioos:station:WAVCIS:CSI16:1,2010-04-07T09:00:00Z,29.4012,-89.0355,9.21,11111222 
WAVCIS,ioos:station:WAVCIS:CSI16:1,2010-04-07T10:00:00Z,29.4012,-89.0355,9.229,11111222 
WAVCIS,ioos:station:WAVCIS:CSI16:1,2010-04-07T11:00:00Z,29.4012,-89.0355,9.257,11111222 
WAVCIS,ioos:station:WAVCIS:CSI16:1,2010-04-07T12:00:00Z,29.4012,-89.0355,9.303,11111222 
WAVCIS,ioos:station:WAVCIS:CSI16:1,2010-04-07T13:00:00Z,29.4012,-89.0355,9.352,11111222 
WAVCIS,ioos:station:WAVCIS:CSI16:1,2010-04-07T14:00:00Z,29.4012,-89.0355,9.371,11111222 
WAVCIS,ioos:station:WAVCIS:CSI16:1,2010-04-07T15:00:00Z,29.4012,-89.0355,9.427,11111222 
WAVCIS,ioos:station:WAVCIS:CSI16:1,2010-04-07T16:00:00Z,29.4012,-89.0355,9.46,11111222 
WAVCIS,ioos:station:WAVCIS:CSI16:1,2010-04-07T17:00:00Z,29.4012,-89.0355,9.484,11111222 
WAVCIS,ioos:station:WAVCIS:CSI16:1,2010-04-07T18:00:00Z,29.4012,-89.0355,9.512,11111222 
WAVCIS,ioos:station:WAVCIS:CSI16:1,2010-04-07T19:00:00Z,29.4012,-89.0355,9.538,11111222 
WAVCIS,ioos:station:WAVCIS:CSI16:1,2010-04-07T20:00:00Z,29.4012,-89.0355,9.52,11111222 
WAVCIS,ioos:station:WAVCIS:CSI16:1,2010-04-07T21:00:00Z,29.4012,-89.0355,9.506,11111222 
WAVCIS,ioos:station:WAVCIS:CSI16:1,2010-04-07T22:00:00Z,29.4012,-89.0355,9.505,11111222 
WAVCIS,ioos:station:WAVCIS:CSI16:1,2010-04-07T23:00:00Z,29.4012,-89.0355,9.487,11111222 
WAVCIS,ioos:station:WAVCIS:CSI16:1,2010-04-08T00:00:00Z,29.4012,-89.0355,9.43,11111222 
WAVCIS,ioos:station:WAVCIS:CSI16:1,2010-04-08T01:00:00Z,29.4012,-89.0355,9.392,11111222 
WAVCIS,ioos:station:WAVCIS:CSI16:1,2010-04-08T02:00:00Z,29.4012,-89.0355,9.374,11111222 
WAVCIS,ioos:station:WAVCIS:CSI16:1,2010-04-08T03:00:00Z,29.4012,-89.0355,9.337,11111222 
WAVCIS,ioos:station:WAVCIS:CSI16:1,2010-04-08T04:00:00Z,29.4012,-89.0355,9.301,11111222 
WAVCIS,ioos:station:WAVCIS:CSI16:1,2010-04-08T05:00:00Z,29.4012,-89.0355,9.273,11111222 
WAVCIS,ioos:station:WAVCIS:CSI16:1,2010-04-08T06:00:00Z,29.4012,-89.0355,9.232,11111222 
WAVCIS,ioos:station:WAVCIS:CSI16:1,2010-04-08T07:00:00Z,29.4012,-89.0355,9.209,11111222 
WAVCIS,ioos:station:WAVCIS:CSI16:1,2010-04-08T08:00:00Z,29.4012,-89.0355,9.192,11111222 
WAVCIS,ioos:station:WAVCIS:CSI16:1,2010-04-08T09:00:00Z,29.4012,-89.0355,9.197,11111222 
WAVCIS,ioos:station:WAVCIS:CSI16:1,2010-04-08T10:00:00Z,29.4012,-89.0355,9.192,11111222 
WAVCIS,ioos:station:WAVCIS:CSI16:1,2010-04-08T11:00:00Z,29.4012,-89.0355,9.24,11111222 
WAVCIS,ioos:station:WAVCIS:CSI16:1,2010-04-08T12:00:00Z,29.4012,-89.0355,9.285,11111222 
WAVCIS,ioos:station:WAVCIS:CSI16:1,2010-04-08T13:00:00Z,29.4012,-89.0355,9.335,11111222 
WAVCIS,ioos:station:WAVCIS:CSI16:1,2010-04-08T14:00:00Z,29.4012,-89.0355,9.382,11111222 
WAVCIS,ioos:station:WAVCIS:CSI16:1,2010-04-08T15:00:00Z,29.4012,-89.0355,9.327,11111222 
WAVCIS,ioos:station:WAVCIS:CSI16:1,2010-04-08T16:00:00Z,29.4012,-89.0355,9.38,11111222 
WAVCIS,ioos:station:WAVCIS:CSI16:1,2010-04-08T17:00:00Z,29.4012,-89.0355,9.407,11111222 
WAVCIS,ioos:station:WAVCIS:CSI16:1,2010-04-08T18:00:00Z,29.4012,-89.0355,9.383,11111222 
WAVCIS,ioos:station:WAVCIS:CSI16:1,2010-04-08T19:00:00Z,29.4012,-89.0355,9.387,11111222 
WAVCIS,ioos:station:WAVCIS:CSI16:1,2010-04-08T20:00:00Z,29.4012,-89.0355,9.416,11111222 
WAVCIS,ioos:station:WAVCIS:CSI16:1,2010-04-08T21:00:00Z,29.4012,-89.0355,9.434,11111222 
WAVCIS,ioos:station:WAVCIS:CSI16:1,2010-04-08T22:00:00Z,29.4012,-89.0355,9.437,11111222 
WAVCIS,ioos:station:WAVCIS:CSI16:1,2010-04-08T23:00:00Z,29.4012,-89.0355,9.445,11111222 
WAVCIS,ioos:station:WAVCIS:CSI16:1,2010-04-09T00:00:00Z,29.4012,-89.0355,9.427,11111222 
WAVCIS,ioos:station:WAVCIS:CSI16:1,2010-04-09T01:00:00Z,29.4012,-89.0355,9.403,11111222 
WAVCIS,ioos:station:WAVCIS:CSI16:1,2010-04-09T02:00:00Z,29.4012,-89.0355,9.41,11111222 
WAVCIS,ioos:station:WAVCIS:CSI16:1,2010-04-09T03:00:00Z,29.4012,-89.0355,9.38,11111222 
WAVCIS,ioos:station:WAVCIS:CSI16:1,2010-04-09T04:00:00Z,29.4012,-89.0355,9.328,11111222 
WAVCIS,ioos:station:WAVCIS:CSI16:1,2010-04-09T05:00:00Z,29.4012,-89.0355,9.289,11111222 
WAVCIS,ioos:station:WAVCIS:CSI16:1,2010-04-09T06:00:00Z,29.4012,-89.0355,9.258,11111222 
WAVCIS,ioos:station:WAVCIS:CSI16:1,2010-04-09T07:00:00Z,29.4012,-89.0355,9.25,11111222 
WAVCIS,ioos:station:WAVCIS:CSI16:1,2010-04-09T08:00:00Z,29.4012,-89.0355,9.277,11111222 
WAVCIS,ioos:station:WAVCIS:CSI16:1,2010-04-09T09:00:00Z,29.4012,-89.0355,9.276,11111222 
WAVCIS,ioos:station:WAVCIS:CSI16:1,2010-04-09T10:00:00Z,29.4012,-89.0355,9.287,11111222 
WAVCIS,ioos:station:WAVCIS:CSI16:1,2010-04-09T11:00:00Z,29.4012,-89.0355,9.321,11111222 
WAVCIS,ioos:station:WAVCIS:CSI16:1,2010-04-09T12:00:00Z,29.4012,-89.0355,9.37,11111222 
WAVCIS,ioos:station:WAVCIS:CSI16:1,2010-04-09T13:00:00Z,29.4012,-89.0355,9.422,11111222 
WAVCIS,ioos:station:WAVCIS:CSI16:1,2010-04-09T14:00:00Z,29.4012,-89.0355,9.463,11111222 
WAVCIS,ioos:station:WAVCIS:CSI16:1,2010-04-09T15:00:00Z,29.4012,-89.0355,9.484,11111222 
WAVCIS,ioos:station:WAVCIS:CSI16:1,2010-04-09T16:00:00Z,29.4012,-89.0355,9.509,11111222 
WAVCIS,ioos:station:WAVCIS:CSI16:1,2010-04-09T17:00:00Z,29.4012,-89.0355,9.504,11111222 
WAVCIS,ioos:station:WAVCIS:CSI16:1,2010-04-09T18:00:00Z,29.4012,-89.0355,9.494,11111222 
WAVCIS,ioos:station:WAVCIS:CSI16:1,2010-04-09T19:00:00Z,29.4012,-89.0355,9.48,11111222 
WAVCIS,ioos:station:WAVCIS:CSI16:1,2010-04-09T20:00:00Z,29.4012,-89.0355,9.469,11111222 
WAVCIS,ioos:station:WAVCIS:CSI16:1,2010-04-09T21:00:00Z,29.4012,-89.0355,9.467,11111222 
WAVCIS,ioos:station:WAVCIS:CSI16:1,2010-04-09T22:00:00Z,29.4012,-89.0355,9.462,11111222 
WAVCIS,ioos:station:WAVCIS:CSI16:1,2010-04-09T23:00:00Z,29.4012,-89.0355,9.456,11111222 
WAVCIS,ioos:station:WAVCIS:CSI16:1,2010-04-10T00:00:00Z,29.4012,-89.0355,9.45,11111222 
WAVCIS,ioos:station:WAVCIS:CSI16:1,2010-04-10T01:00:00Z,29.4012,-89.0355,9.431,11111222 
WAVCIS,ioos:station:WAVCIS:CSI16:1,2010-04-10T02:00:00Z,29.4012,-89.0355,9.432,11111222 
WAVCIS,ioos:station:WAVCIS:CSI16:1,2010-04-10T03:00:00Z,29.4012,-89.0355,9.406,11111222 
WAVCIS,ioos:station:WAVCIS:CSI16:1,2010-04-10T04:00:00Z,29.4012,-89.0355,9.371,11111222 
WAVCIS,ioos:station:WAVCIS:CSI16:1,2010-04-10T05:00:00Z,29.4012,-89.0355,9.337,11111222 
WAVCIS,ioos:station:WAVCIS:CSI16:1,2010-04-10T06:00:00Z,29.4012,-89.0355,9.314,11111222 
WAVCIS,ioos:station:WAVCIS:CSI16:1,2010-04-10T07:00:00Z,29.4012,-89.0355,9.291,11111222 
WAVCIS,ioos:station:WAVCIS:CSI16:1,2010-04-10T08:00:00Z,29.4012,-89.0355,9.278,11111222 
WAVCIS,ioos:station:WAVCIS:CSI16:1,2010-04-10T09:00:00Z,29.4012,-89.0355,9.277,11111222 
WAVCIS,ioos:station:WAVCIS:CSI16:1,2010-04-10T10:00:00Z,29.4012,-89.0355,9.275,11111222 
WAVCIS,ioos:station:WAVCIS:CSI16:1,2010-04-10T11:00:00Z,29.4012,-89.0355,9.292,11111222 
WAVCIS,ioos:station:WAVCIS:CSI16:1,2010-04-10T12:00:00Z,29.4012,-89.0355,9.303,11111222 
WAVCIS,ioos:station:WAVCIS:CSI16:1,2010-04-10T13:00:00Z,29.4012,-89.0355,9.329,11111222 
WAVCIS,ioos:station:WAVCIS:CSI16:1,2010-04-10T14:00:00Z,29.4012,-89.0355,9.368,11111222 
WAVCIS,ioos:station:WAVCIS:CSI16:1,2010-04-10T15:00:00Z,29.4012,-89.0355,9.379,11111222 
WAVCIS,ioos:station:WAVCIS:CSI16:1,2010-04-10T16:00:00Z,29.4012,-89.0355,9.374,11111222 
WAVCIS,ioos:station:WAVCIS:CSI16:1,2010-04-10T17:00:00Z,29.4012,-89.0355,9.368,11111222 
WAVCIS,ioos:station:WAVCIS:CSI16:1,2010-04-10T18:00:00Z,29.4012,-89.0355,9.376,11111222 
WAVCIS,ioos:station:WAVCIS:CSI16:1,2010-04-10T19:00:00Z,29.4012,-89.0355,9.381,11111222 
WAVCIS,ioos:station:WAVCIS:CSI16:1,2010-04-10T20:00:00Z,29.4012,-89.0355,9.389,11111222 
WAVCIS,ioos:station:WAVCIS:CSI16:1,2010-04-10T21:00:00Z,29.4012,-89.0355,9.4,11111222 
WAVCIS,ioos:station:WAVCIS:CSI16:1,2010-04-10T22:00:00Z,29.4012,-89.0355,9.407,11111222 
WAVCIS,ioos:station:WAVCIS:CSI16:1,2010-04-10T23:00:00Z,29.4012,-89.0355,9.421,11111222 
WAVCIS,ioos:station:WAVCIS:CSI16:1,2010-04-11T00:00:00Z,29.4012,-89.0355,9.399,11111222 
WAVCIS,ioos:station:WAVCIS:CSI16:1,2010-04-11T01:00:00Z,29.4012,-89.0355,9.405,11111222 
WAVCIS,ioos:station:WAVCIS:CSI16:1,2010-04-11T02:00:00Z,29.4012,-89.0355,9.405,11111222 
WAVCIS,ioos:station:WAVCIS:CSI16:1,2010-04-11T03:00:00Z,29.4012,-89.0355,9.393,11111222 
WAVCIS,ioos:station:WAVCIS:CSI16:1,2010-04-11T04:00:00Z,29.4012,-89.0355,9.384,11111222 
WAVCIS,ioos:station:WAVCIS:CSI16:1,2010-04-11T05:00:00Z,29.4012,-89.0355,9.37,11111222 
WAVCIS,ioos:station:WAVCIS:CSI16:1,2010-04-11T06:00:00Z,29.4012,-89.0355,9.354,11111222 
WAVCIS,ioos:station:WAVCIS:CSI16:1,2010-04-11T07:00:00Z,29.4012,-89.0355,9.337,11111222 
WAVCIS,ioos:station:WAVCIS:CSI16:1,2010-04-11T08:00:00Z,29.4012,-89.0355,9.327,11111222 
WAVCIS,ioos:station:WAVCIS:CSI16:1,2010-04-11T09:00:00Z,29.4012,-89.0355,9.331,11111222 
WAVCIS,ioos:station:WAVCIS:CSI16:1,2010-04-11T10:00:00Z,29.4012,-89.0355,9.34,11111222 
WAVCIS,ioos:station:WAVCIS:CSI16:1,2010-04-11T11:00:00Z,29.4012,-89.0355,9.345,11111222 
WAVCIS,ioos:station:WAVCIS:CSI16:1,2010-04-11T12:00:00Z,29.4012,-89.0355,9.376,11111222 
WAVCIS,ioos:station:WAVCIS:CSI16:1,2010-04-11T13:00:00Z,29.4012,-89.0355,9.374,11111222 
WAVCIS,ioos:station:WAVCIS:CSI16:1,2010-04-11T14:00:00Z,29.4012,-89.0355,9.386,11111222 
WAVCIS,ioos:station:WAVCIS:CSI16:1,2010-04-11T15:00:00Z,29.4012,-89.0355,9.409,11111222 
WAVCIS,ioos:station:WAVCIS:CSI16:1,2010-04-11T16:00:00Z,29.4012,-89.0355,9.404,11111222 
WAVCIS,ioos:station:WAVCIS:CSI16:1,2010-04-11T17:00:00Z,29.4012,-89.0355,9.374,11111222 
WAVCIS,ioos:station:WAVCIS:CSI16:1,2010-04-11T18:00:00Z,29.4012,-89.0355,9.351,11111222 
WAVCIS,ioos:station:WAVCIS:CSI16:1,2010-04-11T19:00:00Z,29.4012,-89.0355,9.329,11111222 
WAVCIS,ioos:station:WAVCIS:CSI16:1,2010-04-11T20:00:00Z,29.4012,-89.0355,9.313,11111222 
WAVCIS,ioos:station:WAVCIS:CSI16:1,2010-04-11T21:00:00Z,29.4012,-89.0355,9.305,11111222 
WAVCIS,ioos:station:WAVCIS:CSI16:1,2010-04-11T22:00:00Z,29.4012,-89.0355,9.318,11111222 
WAVCIS,ioos:station:WAVCIS:CSI16:1,2010-04-11T23:00:00Z,29.4012,-89.0355,9.331,11111222 
WAVCIS,ioos:station:WAVCIS:CSI16:1,2010-04-12T00:00:00Z,29.4012,-89.0355,9.321,11111222 
WAVCIS,ioos:station:WAVCIS:CSI16:1,2010-04-12T01:00:00Z,29.4012,-89.0355,9.33,11111222 
WAVCIS,ioos:station:WAVCIS:CSI16:1,2010-04-12T02:00:00Z,29.4012,-89.0355,9.35,11111222 
WAVCIS,ioos:station:WAVCIS:CSI16:1,2010-04-12T03:00:00Z,29.4012,-89.0355,9.374,11111222 
WAVCIS,ioos:station:WAVCIS:CSI16:1,2010-04-12T04:00:00Z,29.4012,-89.0355,9.383,11111222 